MOLNIYA 1-49 [?] (12156 NORAD) Tracking and Keplerian Element Data

This shows tracking and keplerian element data for the satellite.

Feedback or suggestion? Click here.




ElementValue
Catalog12156
NameMOLNIYA 1-49 [?]
Epoch Orbit23040
Epoch Day236.78454337
Epoch Year2023
RAAN94.8315
Inclination61.7223
Eccentricity0.7450759
Argument of Perigee270.2504
Mean Anonmoly13.3368
Mean Motion2.05821674
Decay Rate2.715E-05
L11 12156U 81009A 23236.78454337 .00002715 00000+0 76620-3 0 9998
L22 12156 61.7223 94.8315 7450759 270.2504 13.3368 2.05821674230403



Live tracking and technical data element details for MOLNIYA 1-49 [?] (NORAD 12156). MOLNIYA 1-49 [?] can be tracked NOW for your location showing map with azimuth and elevation plus other details from your city location.







IsCatalogInMostPopularTable: catalog: 12156, numindb: 292
Update: records affected: 1



GetName: 12156 MOLNIYA 1-49 [?]

Hit Count: updated at: Sat, 24 May 2025 17:23:51 GMT